Burbank, CA

3:25 AM PDT on April 23, 2018 (GMT -0700)
Burbank-Glendale-Pasadena

Weather History for KBUR - October, 2013

Change the Weather History Date:

Monday, October 14, 2013

  Actual Average Record
Temperature  
Mean Temperature 70 °F 67 °F  
Max Temperature 86 °F 80 °F 100 °F (1961)
Min Temperature 53 °F 55 °F 44 °F (1969)
Degree Days  
Heating Degree Days 0 1  
Month to date heating degree days 13 14  
Since 1 July heating degree days 13 20  
Cooling Degree Days 5 3  
Month to date cooling degree days 72 61  
Year to date cooling degree days 1902 1192  
Growing Degree Days 19 (Base 50)    
Moisture  
Dew Point 38 °F    
Average Humidity 44    
Maximum Humidity 77    
Minimum Humidity 11    
Precipitation  
Precipitation 0.00 in 0.03 in 0.25 in (2009)
Month to date precipitation 0.10 0.37  
Year to date precipitation 2.71 13.24  
Since 1 July precipitation 0.11  
Sea Level Pressure  
Sea Level Pressure 29.94 in    
Wind  
Wind Speed 3 mph (South)    
Max Wind Speed 12 mph    
Max Gust Speed 15 mph    
Visibility 10 miles    
Events      
T = Trace of Precipitation, MM = Missing Value Source: NWS Daily Summary

Daily Weather History Graph

Daily Weather History Graph

Search for Another Location

Airport or City:

Astronomy

Oct. 14, 2013 Rise Set
Actual Time 6:58 AM PDT 6:19 PM PDT
Civil Twilight 6:32 AM PDT 6:45 PM PDT
Nautical Twilight 6:03 AM PDT 7:14 PM PDT
Astronomical Twilight 5:34 AM PDT 7:43 PM PDT
Moon 3:42 PM PDT (10/14) 2:31 AM PDT (10/14)
Length of Visible Light 12h 12m
Length of Day
11h 21m
Waxing Gibbous, 80% of the Moon is Illuminated
Oct 14
Waxing Gibbous
Oct 18
Full
Oct 26
Last Quarter
Nov 3
New
Nov 9
First Quarter

Hourly Weather History & Observations

Time (PDT) Temp. Dew Point Humidity Pressure Visibility Wind Dir Wind Speed Gust Speed Precip Events Conditions
12:53 AM 57.9 °F 50.0 °F 75% 29.99 in 10.0 mi Calm Calm - N/A   Clear
1:53 AM 57.0 °F 48.9 °F 74% 29.99 in 10.0 mi Calm Calm - N/A   Clear
2:53 AM 57.0 °F 46.9 °F 69% 29.98 in 10.0 mi SW 3.5 mph - N/A   Clear
3:53 AM 55.9 °F 48.0 °F 75% 29.97 in 10.0 mi Calm Calm - N/A   Clear
4:53 AM 54.0 °F 46.0 °F 75% 29.97 in 10.0 mi Calm Calm - N/A   Clear
5:53 AM 54.0 °F 45.0 °F 72% 29.98 in 10.0 mi Calm Calm - N/A   Clear
6:53 AM 54.0 °F 44.1 °F 69% 29.99 in 10.0 mi Calm Calm - N/A   Clear
7:53 AM 55.9 °F 44.1 °F 64% 29.99 in 10.0 mi Calm Calm - N/A   Clear
8:53 AM 60.1 °F 45.0 °F 57% 30.00 in 10.0 mi Calm Calm - N/A   Clear
9:53 AM 66.0 °F 45.0 °F 47% 30.00 in 10.0 mi ESE 4.6 mph - N/A   Clear
10:53 AM 72.0 °F 43.0 °F 35% 29.99 in 10.0 mi Calm Calm - N/A   Clear
11:53 AM 78.1 °F 42.1 °F 28% 29.97 in 10.0 mi SE 3.5 mph - N/A   Clear
12:53 PM 82.0 °F 36.0 °F 19% 29.95 in 10.0 mi Calm Calm - N/A   Clear
1:53 PM 84.0 °F 25.0 °F 12% 29.91 in 10.0 mi South 5.8 mph - N/A   Clear
2:53 PM 84.9 °F 28.0 °F 13% 29.89 in 10.0 mi SW 8.1 mph - N/A   Clear
3:53 PM 84.9 °F 30.0 °F 14% 29.88 in 10.0 mi SSE 11.5 mph - N/A   Clear
4:53 PM 84.0 °F 28.0 °F 13% 29.87 in 10.0 mi South 8.1 mph - N/A   Clear
5:53 PM 82.0 °F 27.0 °F 13% 29.88 in 10.0 mi South 4.6 mph - N/A   Clear
6:53 PM 79.0 °F 28.0 °F 15% 29.88 in 10.0 mi Calm Calm - N/A   Clear
7:53 PM 75.0 °F 30.0 °F 19% 29.90 in 10.0 mi NNW 3.5 mph - N/A   Clear
8:53 PM 73.9 °F 30.0 °F 20% 29.90 in 10.0 mi North 6.9 mph - N/A   Clear
9:53 PM 72.0 °F 30.0 °F 21% 29.91 in 10.0 mi Calm Calm - N/A   Clear
10:53 PM 69.1 °F 35.1 °F 29% 29.91 in 10.0 mi Calm Calm - N/A   Clear
11:53 PM 66.9 °F 36.0 °F 32% 29.92 in 10.0 mi Calm Calm - N/A   Clear